Find Starlink 30378

NORAD ID: 57787 Int'l Des: 2023-134 Owner: SPXS Country: US Constellation: starlink operational
LEOCIRCULAR

現在のビュー

3D地球を読み込み中...

About Starlink 30378

Starlink 30378 (NORAD 57787) is a starlink constellation satellite (v2 mini) launched Sep 4, 2023 by SPXS of US. It operates in LEO, CIRCULAR orbit with a mass of 730.00 kg.

Starlink 30378について

説明を読み込み中...

次回通過

Passes for default location (London). Set your location on the main map for personalized predictions.

高度履歴

Loading altitude history...

軌道要素

1 57787U 23134S 26174.80376358 -.00000703 00000-0 -16029-4 0 9991
2 57787 43.0019 315.3707 0001083 261.8240 98.2489 15.27586275155733
Epoch: Jun 23, 2026 • Age: 33 hours

現在のステータス

高度 495.6 km
速度 7.62 km/s
衛星直下点 -43.12°S, 110.35°W
打ち上げ日 Sep 4, 2023
運用期間 2.8 years
タイプ internet

技術仕様

分類 Payload
質量 730.00 kg
乾燥質量 700.00 kg
総質量 730.00 kg
長さ 0.30 m
直径 4.10 m
スパン 29.00 m
形状 Box + pan
製造者 SPXS
バスタイプ Starlink V2M
フェーズステータス In Orbit
所有者/国 SPXS/US

Most Searched